{"data":{"norad_id":68257,"epoch":"2026-05-24T15:47:18.257280Z","epoch_age_seconds":104809,"freshness":"FRESH","line1":"1 68257U 26054AB  26144.65785020  .00018919  00000+0  56957-3 0  9997","line2":"2 68257  53.1601 297.4951 0001109  83.9649 276.1480 15.34404686 10711","mean_motion":15.34404686,"eccentricity":0.0001109,"inclination_deg":53.1601,"raan_deg":297.4951,"arg_perigee_deg":83.9649,"mean_anomaly_deg":276.148,"bstar":0.00056957,"rev_number":1071,"period_min":93.84747147468,"perigee_km":461.93066482497,"apogee_km":463.44796010107,"semimajor_km":6840.826312463,"source":"CELESTRAK","updated_at":"2026-05-25T13:38:21.888396Z"}}